Location: Kawakawa
(35.3830°S, 174.0670°E)
Time: 17:13:18
(UTC+13:00)

Altair - Pass Details

Date: 15 December 2019
Orbit: 1502 x 1682 km, 47.2° (Epoch: 28 January)

Event Time Altitude Azimuth Distance (km) Brightness Sun altitude
Rises 13:19:23 0° 244° (WSW) 4,863 10.1 77.9°
Reaches altitude 10° 13:22:42 10° 238° (WSW) 3,899 9.7 77.8°
Maximum altitude 13:32:20 48° 165° (SSE) 2,108 8.9 77.5°
Drops below altitude 10° 13:42:06 10° 92° (E) 3,955 9.7 76.8°
Sets 13:45:29 0° 86° (E) 4,938 10.1 76.5°
